User: anonymous   Login
Location: Unspecified
(0.0000°N, 0.0000°E)
Time: 04:10:42
(UTC+00:00)
Language:

DSCS II F-15 - Orbit

View from above orbital plane
View from above orbital plane
View from above satellite
View from above satellite

Ground track
Ground track

The orbit data is extracted from the following two-line orbital elements,

1 20202U 89069A   18011.96692583 0.00000000  00000-0  00000-0 0    00
2 20202  15.3553   1.6804 0015560 204.5574 155.3805  0.98608088    07
Epoch (UTC): 11 January 2018 23:12:22
Eccentricity: 0.0015560
inclination: 15.3553°
perigee height: 36193 km
apogee height: 36325 km
right ascension of ascending node: 1.6804°
argument of perigee: 204.5574°
revolutions per day: 0.98608088
mean anomaly at epoch: 155.3805°
orbit number at epoch: 0

The dashed part of the orbit path shows where the satellite is in the earth's shadow,  

DLR